Fremont, MI

2:01 AM EST on December 07, 2019 (GMT -0500)
Fremont

Weather History for KFFX - November, 2019

Change the Weather History Date:

Tuesday, November 12, 2019

  Actual Average (KMKG) Record (KMKG)
Temperature  
Mean Temperature 20 °F -  
Max Temperature 23 °F 44 °F 70 °F (1911)
Min Temperature 17 °F 31 °F 17 °F (1986)
Degree Days  
Heating Degree Days 45    
Moisture  
Dew Point 13 °F    
Average Humidity 75    
Maximum Humidity 100    
Minimum Humidity 56    
Precipitation  
Precipitation 0.00 in - - ()
Sea Level Pressure  
Sea Level Pressure 30.32 in    
Wind  
Wind Speed 8 mph ()    
Max Wind Speed 16 mph    
Max Gust Speed 24 mph    
Visibility 8.4 miles    
Events Snow    
Averages and records for this station are not official NWS values.
T = Trace of Precipitation, MM = Missing Value Source: Averaged Metar Reports

Daily Weather History Graph

Daily Weather History Graph

Search for Another Location

Airport or City:

Astronomy

Nov. 12, 2019 Rise Set
Actual Time 7:33 AM EST 5:22 PM EST
Civil Twilight 7:02 AM EST 5:52 PM EST
Nautical Twilight 6:28 AM EST 6:27 PM EST
Astronomical Twilight 5:54 AM EST 7:00 PM EST
Moon 5:49 PM EST (11/12) 7:22 AM EST (11/12)
Length of Visible Light 10h 50m
Length of Day
9h 49m
Full, 100% of the Moon is Illuminated
Nov 12
Full
Nov 19
Last Quarter
Nov 26
New
Dec 4
First Quarter
Dec 12
Full

Hourly Weather History & Observations

Time (EST) Temp. Windchill Dew Point Humidity Pressure Visibility Wind Dir Wind Speed Gust Speed Precip Events Conditions
12:15 AM 22.8 °F 11.5 °F 22.8 °F 100% 30.22 in 2.0 mi NE 11.5 mph 24.2 mph N/A Snow Light Snow
12:16 AM 22.8 °F 12.2 °F 22.8 °F 100% 30.22 in 1.8 mi NE 10.4 mph 24.2 mph N/A Snow Light Snow
12:35 AM 21.7 °F 12.3 °F 21.7 °F 100% 30.23 in 1.8 mi NNE 8.1 mph - N/A Snow Light Snow
12:55 AM 21.2 °F 16.4 °F 21.0 °F 99% 30.23 in 7.0 mi NNE 3.5 mph - N/A   Overcast
12:56 AM 21.2 °F 16.4 °F 21.2 °F 100% 30.23 in 7.0 mi NNE 3.5 mph - N/A   Overcast
1:15 AM 21.2 °F - 21.2 °F 100% 30.24 in 2.0 mi Calm Calm - N/A Snow Light Snow
1:35 AM 21.2 °F - 21.2 °F 100% 30.24 in 1.0 mi Calm Calm - N/A Snow Light Snow
1:55 AM 20.8 °F 12.1 °F 20.8 °F 100% 30.25 in 1.5 mi North 6.9 mph - N/A Snow Light Snow
1:56 AM 20.8 °F 13.2 °F 20.8 °F 100% 30.25 in 1.5 mi North 5.8 mph - N/A Snow Light Snow
2:15 AM 20.3 °F 12.5 °F 20.3 °F 100% 30.25 in 5.0 mi North 5.8 mph - N/A Snow Light Snow
2:35 AM 20.5 °F 14.0 °F 20.1 °F 99% 30.25 in 3.0 mi NNW 4.6 mph - N/A Snow Light Snow
2:55 AM 20.3 °F 12.5 °F 20.3 °F 100% 30.25 in 0.8 mi NNW 5.8 mph - N/A Snow Snow
3:35 AM 20.1 °F 8.1 °F 19.2 °F 96% 30.26 in 4.0 mi NNW 11.5 mph - N/A Snow Light Snow
4:15 AM 19.9 °F 6.7 °F 13.5 °F 76% 30.25 in 10.0 mi NNW 13.8 mph - N/A   Overcast
4:35 AM 19.9 °F 7.3 °F 14.0 °F 78% 30.26 in 10.0 mi NNW 12.7 mph - N/A   Overcast
4:55 AM 19.8 °F 7.1 °F 14.0 °F 78% 30.26 in 10.0 mi NNW 12.7 mph - N/A   Overcast
4:56 AM 19.8 °F 7.1 °F 14.0 °F 78% 30.26 in 10.0 mi NNW 12.7 mph - N/A   Overcast
5:15 AM 19.6 °F 6.8 °F 14.2 °F 80% 30.27 in 10.0 mi NNW 12.7 mph - N/A   Overcast
5:16 AM 19.6 °F 7.4 °F 14.2 °F 80% 30.27 in 10.0 mi NNW 11.5 mph - N/A   Overcast
5:35 AM 19.4 °F 7.2 °F 14.4 °F 81% 30.27 in 10.0 mi NW 11.5 mph 18.4 mph N/A   Overcast
5:36 AM 19.4 °F 6.0 °F 14.2 °F 80% 30.27 in 10.0 mi NW 13.8 mph 18.4 mph N/A   Overcast
5:55 AM 19.4 °F 6.6 °F 14.0 °F 80% 30.27 in 10.0 mi NW 12.7 mph - N/A   Overcast
6:15 AM 19.4 °F 6.6 °F 14.0 °F 80% 30.28 in 10.0 mi NW 12.7 mph - N/A   Overcast
6:35 AM 19.2 °F 8.4 °F 14.0 °F 80% 30.29 in 10.0 mi NW 9.2 mph - N/A   Overcast
6:36 AM 19.2 °F 7.7 °F 14.0 °F 80% 30.29 in 10.0 mi NW 10.4 mph - N/A   Overcast
6:55 AM 18.9 °F 8.8 °F 14.0 °F 81% 30.29 in 7.0 mi NW 8.1 mph - N/A Snow Light Snow
7:15 AM 18.7 °F 6.3 °F 14.0 °F 82% 30.30 in 5.0 mi NNW 11.5 mph - N/A Snow Light Snow
7:35 AM 18.5 °F 3.8 °F 12.9 °F 79% 30.30 in 7.0 mi NNW 16.1 mph - N/A   Overcast
7:55 AM 18.3 °F 6.6 °F 12.7 °F 79% 30.30 in 5.0 mi NW 10.4 mph 18.4 mph N/A   Haze
8:15 AM 17.4 °F 4.7 °F 12.2 °F 80% 30.31 in 10.0 mi NW 11.5 mph - N/A   Scattered Clouds
8:35 AM 18.3 °F 5.9 °F 12.4 °F 78% 30.32 in 10.0 mi NW 11.5 mph - N/A   Clear
8:55 AM 19.2 °F 7.0 °F 12.2 °F 74% 30.32 in 10.0 mi NW 11.5 mph - N/A   Clear
9:15 AM 20.1 °F 8.1 °F 12.7 °F 73% 30.33 in 10.0 mi NW 11.5 mph - N/A   Clear
9:35 AM 21.0 °F 9.9 °F 13.1 °F 71% 30.34 in 10.0 mi NW 10.4 mph - N/A   Scattered Clouds
9:36 AM 21.0 °F 9.3 °F 13.1 °F 71% 30.34 in 10.0 mi NW 11.5 mph - N/A   Mostly Cloudy
9:55 AM 20.5 °F 9.2 °F 12.4 °F 71% 30.34 in 10.0 mi NW 10.4 mph - N/A   Mostly Cloudy
10:15 AM 21.6 °F 9.3 °F 12.4 °F 68% 30.34 in 10.0 mi NW 12.7 mph - N/A   Overcast
10:35 AM 21.6 °F 8.8 °F 10.8 °F 63% 30.34 in 10.0 mi NW 13.8 mph 21.9 mph N/A   Overcast
10:36 AM 21.6 °F 9.9 °F 10.9 °F 64% 30.35 in 10.0 mi NW 11.5 mph 21.9 mph N/A   Overcast
10:55 AM 21.7 °F 10.2 °F 12.2 °F 67% 30.35 in 10.0 mi NW 11.5 mph 16.1 mph N/A   Overcast
11:15 AM 21.9 °F 11.0 °F 12.7 °F 68% 30.35 in 10.0 mi NW 10.4 mph - N/A   Mostly Cloudy
11:35 AM 22.6 °F 12.6 °F 13.5 °F 68% 30.35 in 10.0 mi West 9.2 mph - N/A   Overcast
11:55 AM 23.0 °F 11.1 °F 14.5 °F 70% 30.35 in 10.0 mi WNW 12.7 mph 17.3 mph N/A   Overcast
12:15 PM 22.3 °F 10.2 °F 11.8 °F 64% 30.35 in 10.0 mi NW 12.7 mph 16.1 mph N/A   Overcast
12:35 PM 22.8 °F 10.4 °F 13.5 °F 67% 30.35 in 10.0 mi WNW 13.8 mph 18.4 mph N/A   Overcast
12:36 PM 22.8 °F 10.4 °F 13.3 °F 67% 30.35 in 10.0 mi WNW 13.8 mph 18.4 mph N/A   Overcast
12:55 PM 22.5 °F 10.5 °F 11.3 °F 62% 30.35 in 10.0 mi WNW 12.7 mph - N/A   Overcast
12:56 PM 22.5 °F 10.5 °F 11.5 °F 63% 30.35 in 10.0 mi WNW 12.7 mph - N/A   Overcast
1:15 PM 22.1 °F 9.5 °F 13.3 °F 69% 30.35 in 10.0 mi NNW 13.8 mph 17.3 mph N/A Snow Light Snow
1:35 PM 22.5 °F 10.5 °F 11.1 °F 62% 30.35 in 10.0 mi NW 12.7 mph 19.6 mph N/A   Overcast
1:55 PM 23.4 °F 11.6 °F 10.6 °F 58% 30.35 in 10.0 mi NW 12.7 mph - N/A   Overcast
1:56 PM 23.5 °F 11.3 °F 10.6 °F 58% 30.35 in 10.0 mi NW 13.8 mph - N/A   Overcast
2:15 PM 23.0 °F 12.4 °F 9.5 °F 56% 30.35 in 7.0 mi NNW 10.4 mph - N/A   Overcast
2:16 PM 23.0 °F 12.4 °F 10.0 °F 58% 30.35 in 7.0 mi NNW 10.4 mph - N/A   Overcast
2:35 PM 22.1 °F 10.6 °F 12.4 °F 66% 30.35 in 7.0 mi NNW 11.5 mph - N/A Snow Light Snow
2:36 PM 22.1 °F 10.6 °F 12.2 °F 66% 30.35 in 7.0 mi NNW 11.5 mph - N/A Snow Light Snow
2:55 PM 21.9 °F 10.4 °F 10.6 °F 62% 30.34 in 10.0 mi NNW 11.5 mph 16.1 mph N/A   Overcast
3:15 PM 22.1 °F 11.3 °F 11.1 °F 63% 30.35 in 10.0 mi WNW 10.4 mph - N/A   Overcast
3:35 PM 21.7 °F 11.5 °F 10.4 °F 62% 30.35 in 7.0 mi NNW 9.2 mph - N/A Snow Light Snow
3:55 PM 20.7 °F 10.2 °F 7.0 °F 56% 30.35 in 10.0 mi NW 9.2 mph - N/A   Mostly Cloudy
4:15 PM 21.0 °F 11.4 °F 8.1 °F 57% 30.36 in 10.0 mi NNW 8.1 mph - N/A   Mostly Cloudy
4:16 PM 21.0 °F 11.4 °F 8.1 °F 57% 30.36 in 10.0 mi NNW 8.1 mph - N/A   Mostly Cloudy
4:35 PM 21.6 °F 9.3 °F 12.9 °F 69% 30.35 in 7.0 mi WNW 12.7 mph - N/A Snow Light Snow
4:36 PM 21.6 °F 9.3 °F 12.7 °F 69% 30.35 in 7.0 mi WNW 12.7 mph - N/A Snow Light Snow
4:55 PM 21.2 °F 12.6 °F 12.7 °F 70% 30.36 in 10.0 mi WNW 6.9 mph - N/A Snow Light Snow
4:56 PM 21.2 °F 12.6 °F 12.9 °F 70% 30.36 in 10.0 mi WNW 6.9 mph - N/A Snow Light Snow
5:15 PM 19.6 °F 13.0 °F 14.5 °F 81% 30.36 in 0.8 mi WNW 4.6 mph - N/A Snow Light Snow
5:16 PM 19.4 °F 12.8 °F 14.5 °F 81% 30.36 in 0.8 mi WNW 4.6 mph - N/A Snow Light Snow
5:35 PM 18.1 °F 12.9 °F 12.2 °F 78% 30.36 in 10.0 mi West 3.5 mph - N/A   Scattered Clouds
5:36 PM 18.0 °F 12.7 °F 12.2 °F 78% 30.36 in 10.0 mi West 3.5 mph - N/A   Scattered Clouds
5:55 PM 18.3 °F 11.5 °F 12.0 °F 76% 30.36 in 10.0 mi West 4.6 mph - N/A   Mostly Cloudy
6:15 PM 18.5 °F 13.3 °F 11.1 °F 73% 30.37 in 10.0 mi West 3.5 mph - N/A   Overcast
6:16 PM 18.5 °F 13.3 °F 10.9 °F 72% 30.37 in 10.0 mi West 3.5 mph - N/A   Overcast
6:35 PM 18.9 °F - 11.1 °F 72% 30.37 in 10.0 mi Calm Calm - N/A   Overcast
6:55 PM 19.4 °F 11.5 °F 11.3 °F 71% 30.36 in 10.0 mi West 5.8 mph - N/A   Overcast
7:15 PM 19.4 °F 14.3 °F 11.3 °F 71% 30.36 in 10.0 mi West 3.5 mph - N/A   Overcast
7:35 PM 19.9 °F 13.4 °F 8.1 °F 60% 30.36 in 10.0 mi NW 4.6 mph - N/A   Overcast
7:55 PM 19.8 °F 13.2 °F 9.7 °F 65% 30.36 in 10.0 mi WNW 4.6 mph - N/A   Overcast
8:15 PM 19.4 °F - 9.5 °F 65% 30.35 in 10.0 mi Calm Calm - N/A   Overcast
8:35 PM 18.5 °F - 10.2 °F 70% 30.35 in 10.0 mi Calm Calm - N/A   Overcast
8:55 PM 18.3 °F - 11.5 °F 75% 30.35 in 10.0 mi Calm Calm - N/A   Overcast
9:15 PM 18.5 °F - 11.1 °F 73% 30.35 in 10.0 mi Calm Calm - N/A   Overcast
9:35 PM 18.9 °F - 11.1 °F 72% 30.35 in 10.0 mi Calm Calm - N/A   Overcast
9:36 PM 18.7 °F - 11.1 °F 72% 30.35 in 10.0 mi Calm Calm - N/A   Overcast
9:55 PM 18.3 °F - 12.2 °F 77% 30.35 in 10.0 mi Calm Calm - N/A   Overcast
9:56 PM 18.5 °F - 12.0 °F 76% 30.35 in 10.0 mi Calm Calm - N/A   Overcast
10:15 PM 18.3 °F - 11.5 °F 75% 30.34 in 10.0 mi Calm Calm - N/A   Overcast
10:16 PM 18.3 °F - 11.5 °F 75% 30.34 in 10.0 mi Calm Calm - N/A   Overcast
10:35 PM 18.5 °F - 11.7 °F 75% 30.34 in 10.0 mi Calm Calm - N/A   Overcast
10:36 PM 18.5 °F - 11.5 °F 74% 30.34 in 10.0 mi Calm Calm - N/A   Overcast
10:55 PM 18.9 °F 13.7 °F 11.3 °F 72% 30.33 in 10.0 mi SE 3.5 mph - N/A   Overcast
11:15 PM 18.5 °F - 11.8 °F 75% 30.33 in 10.0 mi Calm Calm - N/A   Overcast
11:35 PM 18.1 °F 12.9 °F 11.3 °F 75% 30.32 in 10.0 mi SSE 3.5 mph - N/A   Overcast
11:55 PM 17.6 °F 12.3 °F 10.9 °F 75% 30.32 in 10.0 mi SSE 3.5 mph - N/A   Overcast